Regional Weather Roundup
Issued by NWS

Home | Current Version | Previous Version | Text Only | Print | Product List | Glossary Off
Versions: 1 2 3 4 5 6 7 8 9 10 11 12 13 14 15 16 17 18 19 20 21 22 23 24 25 26 27 28 29 30 31 32 33 34 35 36 37 38 39 40 41 42 43 44 45 46 47 48 49 50

643
ASUS45 KCYS 121510
RWRWY

WYOMING REGIONAL WEATHER ROUNDUP
NATIONAL WEATHER SERVICE CHEYENNE WY
800 AM MST FRI FEB 12 2016

NOTE:  "FAIR" INDICATES FEW OR NO CLOUDS BELOW 12,000 FEET
WITH NO SIGNIFICANT WEATHER AND/OR OBSTRUCTIONS TO VISIBILITY.

WYZ001-121600-
YELLOWSTONE NATIONAL PARK

CITY           SKY/WX    TMP DP  RH WIND       PRES   REMARKS
LK YELLOWSTONE   N/A     28  26  92 CALM      30.37R
W YELLOWSTONE  NOT AVBL

$$
WYZ002>013-054>058-071-098>099-121600-
NORTHERN WYOMING

CITY           SKY/WX    TMP DP  RH WIND       PRES   REMARKS
JACKSON        FOG       21  19  93 CALM      30.37R VSB 1/4
CODY           MOCLDY    30  19  64 CALM      30.26R
GREYBULL       FAIR      35  29  78 CALM      30.26R
WORLAND        CLOUDY    34  29  82 S6        30.26R WCI  29
SHERIDAN       CLOUDY    32  28  85 CALM      30.30R
BUFFALO        CLOUDY    32  26  78 S5        30.30S WCI  27
GILLETTE       CLOUDY    28  27  96 E3        30.32S
HULETT         CLOUDY    32  28  86 CALM      30.34R
NEWCASTLE      FAIR      30  28  93 SE5       30.32R WCI  25

$$
WYZ014>020-022>026-101>103-121600-
CENTRAL WYOMING

CITY           SKY/WX    TMP DP  RH WIND       PRES   REMARKS
BIG PINEY      FAIR      20  17  88 CALM      30.37S
PINEDALE         N/A     21  19  93 NW6       30.37S WCI  14
DUBOIS         FAIR      36  27  69 NW21      30.26S WCI  24
LANDER         FAIR      31  23  72 N6        30.25R WCI  25
RIVERTON       MOCLDY    30  25  81 CALM      30.27R
CASPER         CLOUDY    32  27  81 NW5       30.30R WCI  27
DOUGLAS        CLOUDY    32  29  88 SE6       30.32R WCI  26

$$
WYZ021-027>030-104>119-121600-
SOUTHERN WYOMING

CITY           SKY/WX    TMP DP  RH WIND       PRES   REMARKS
EVANSTON       FAIR      32  14  47 SE6       30.38R WCI  26
FORT BRIDGER   SUNNY     32  18  55 W7        30.40R WCI  26
ROCK SPRINGS   FAIR      31  17  56 SW7       30.38R WCI  24
DIXON          PTSUNNY   20  15  79 E3        30.44R
RAWLINS        FAIR      34  19  54 W14       30.34R WCI  25
SARATOGA       CLOUDY    37  23  56 S7        30.36R WCI  32
LARAMIE        FAIR      38  24  57 CALM      30.30R
CHEYENNE       CLOUDY    36  27  69 CALM      30.30R
TORRINGTON     CLOUDY    31  27  85 W3        30.31R
PINE BLUFFS    CLOUDY    32  30  93 CALM      30.32R

$$




USA.gov is the U.S. government's official web portal to all federal, state and local government web resources and services.